Location: Mary A Oil Field
(38.5606°N, 98.9545°W)
Time: 21:50:33
(UTC+00:00)

Cosmos 1461 - Pass Details

Date: 20 January 2020
Orbit: 516 x 651 km, 65.0° (Epoch: 17 February)

Event Time Altitude Azimuth Distance (km) Brightness Sun altitude
Rises 00:41:59 0° 328° (NNW) 2,818 6.6 -11.6°
Reaches altitude 10° 00:44:11 10° 327° (NNW) 1,936 5.8 -12.0°
Maximum altitude 00:48:34 82° 241° (WSW) 624 3.1 -12.9°
Drops below altitude 10° 00:53:07 10° 154° (SSE) 2,001 5.6 -13.7°
Sets 00:55:25 0° 153° (SSE) 2,920 6.4 -14.1°
